Whiteman AFB, MO

6:26 AM CST on November 18, 2017 (GMT -0600)
Whiteman Air Force Base

Weather History for KSZL - April, 2012

Change the Weather History Date:

Saturday, April 28, 2012

  Actual Average Record
Temperature  
Mean Temperature 63 °F -  
Max Temperature 70 °F 67 °F 84 °F (2001)
Min Temperature 56 °F 48 °F 37 °F (2008)
Degree Days  
Heating Degree Days 2    
Growing Degree Days 13 (Base 50)    
Moisture  
Dew Point 59 °F    
Average Humidity 83    
Maximum Humidity 100    
Minimum Humidity 67    
Precipitation  
Precipitation 0.00 in - - ()
Sea Level Pressure  
Sea Level Pressure 29.87 in    
Wind  
Wind Speed 8 mph (NNE)    
Max Wind Speed 15 mph    
Max Gust Speed 21 mph    
Visibility 10 miles    
Events      
Averages and records for this station are not official NWS values.
T = Trace of Precipitation, MM = Missing Value Source: NWS Daily Summary

Daily Weather History Graph

Daily Weather History Graph

Search for Another Location

Airport or City:

Trip Planner

Search our weather history database for the weather conditions in past years. The results will help you decide how hot, cold, wet, or windy it might be!

Date:

Astronomy

Apr. 28, 2012 Rise Set
Actual Time 6:19 AM CDT 8:04 PM CDT
Civil Twilight 5:51 AM CDT 8:32 PM CDT
Nautical Twilight 5:16 AM CDT 9:07 PM CDT
Astronomical Twilight 4:40 AM CDT 9:44 PM CDT
Moon 12:00 PM CDT (4/28) 1:28 AM CDT (4/28)
Length of Visible Light 14h 41m
Length of Day
13h 44m
Waxing Crescent, 43% of the Moon is Illuminated
Apr 28
Waxing Crescent
Apr 29
First Quarter
May 5
Full
May 12
Last Quarter
May 20
New

Hourly Weather History & Observations

Time (CDT) Temp. Dew Point Humidity Pressure Visibility Wind Dir Wind Speed Gust Speed Precip Events Conditions
12:55 AM 57.9 °F 51.8 °F 80% 29.71 in 10.0 mi SSE 13.8 mph 20.7 mph N/A   Clear
1:55 AM 57.9 °F 55.4 °F 91% 29.72 in 10.0 mi South 15.0 mph - N/A   Clear
2:55 AM 57.9 °F 57.6 °F 99% 29.73 in 10.0 mi South 11.5 mph - N/A   Scattered Clouds
3:55 AM 58.6 °F 58.6 °F 100% 29.74 in 10.0 mi South 11.5 mph - N/A   Clear
4:55 AM 58.3 °F 58.3 °F 100% 29.76 in 10.0 mi SSW 6.9 mph - N/A   Partly Cloudy
5:55 AM 58.1 °F 58.1 °F 100% 29.78 in 10.0 mi SSW 4.6 mph - N/A   Clear
6:55 AM 56.7 °F 56.7 °F 100% 29.80 in 5.0 mi Calm Calm - N/A   Partly Cloudy
7:55 AM 60.1 °F 60.1 °F 100% 29.83 in 10.0 mi SSW 4.6 mph - N/A   Clear
8:33 AM 64.4 °F 64.4 °F 100% 29.84 in 10.0 mi West 6.9 mph - N/A   Mostly Cloudy
8:55 AM 64.6 °F 61.3 °F 89% 29.84 in 10.0 mi NW 9.2 mph - N/A   Mostly Cloudy
9:55 AM 64.9 °F 60.1 °F 84% 29.85 in 10.0 mi NW 5.8 mph - N/A   Mostly Cloudy
10:55 AM 67.1 °F 61.0 °F 81% 29.86 in 10.0 mi North 6.9 mph - N/A   Overcast
11:55 AM 67.1 °F 59.0 °F 75% 29.88 in 10.0 mi North 3.5 mph - N/A   Overcast
12:55 PM 70.0 °F 59.4 °F 69% 29.86 in 10.0 mi North 4.6 mph - N/A   Overcast
1:55 PM 69.6 °F 58.1 °F 67% 29.87 in 5.0 mi Calm Calm - N/A   Haze
2:55 PM 69.6 °F 59.5 °F 70% 29.88 in 10.0 mi Calm Calm - N/A   Overcast
3:28 PM 69.8 °F 59.0 °F 68% 29.88 in 10.0 mi NNW 3.5 mph - N/A   Overcast
3:55 PM 69.8 °F 59.5 °F 70% 29.88 in 10.0 mi NW 3.5 mph - N/A   Overcast
4:55 PM 69.4 °F 61.0 °F 74% 29.88 in 10.0 mi NNW 3.5 mph - N/A   Overcast
5:55 PM 69.1 °F 61.7 °F 77% 29.90 in 10.0 mi Calm Calm - N/A   Overcast
6:55 PM 68.0 °F 62.2 °F 82% 29.90 in 10.0 mi NNE 4.6 mph - N/A   Overcast
7:55 PM 67.6 °F 61.5 °F 81% 29.92 in 10.0 mi East 3.5 mph - N/A   Overcast
8:55 PM 66.2 °F 58.8 °F 77% 29.94 in 10.0 mi NE 10.4 mph - N/A   Overcast
9:23 PM 66.2 °F 57.2 °F 73% 29.96 in 10.0 mi NE 11.5 mph - N/A   Mostly Cloudy
9:55 PM 65.1 °F 57.6 °F 76% 29.97 in 10.0 mi NE 12.7 mph - N/A   Overcast
10:36 PM 64.4 °F 57.2 °F 77% 29.99 in 10.0 mi ENE 9.2 mph - N/A   Overcast
10:55 PM 64.0 °F 58.3 °F 82% 29.99 in 10.0 mi ENE 9.2 mph - N/A   Mostly Cloudy
11:12 PM 64.4 °F 59.0 °F 83% 30.00 in 10.0 mi East 8.1 mph - N/A   Scattered Clouds
11:55 PM 63.3 °F 59.0 °F 86% 29.99 in 10.0 mi ENE 9.2 mph - N/A   Scattered Clouds